User: anonymous   Login
Location: Arpaise
(41.0333°N, 14.7333°E)
Time: 00:02:42
(UTC+00:00)
Language:

Cosmos 846 Rocket - Orbit

View from above orbital plane
View from above orbital plane
View from above satellite
View from above satellite

Ground track
Ground track

The orbit data is extracted from the following two-line orbital elements,

1 09062U 76078B   21023.62293250 -.00000056  00000-0 -70447-4 0  9991
2 09062  82.9305  46.2839 0029785 127.1487 350.5682 13.78419118236967
Epoch (UTC): 23 January 2021 14:57:01
Eccentricity: 0.0029785
inclination: 82.9305°
perigee height: 947 km
apogee height: 991 km
right ascension of ascending node: 46.2839°
argument of perigee: 127.1487°
revolutions per day: 13.78419118
mean anomaly at epoch: 350.5682°
orbit number at epoch: 23696

The dashed part of the orbit path shows where the satellite is in the earth's shadow,  

DLR